When you browse on this site, cookies collect data to enhance your experience and personalize the content and advertising you see.
Visit our Privacy Policy to learn more. By continuing to use the site, you agree to this use of cookies and data.
  • In Hungary
  • List of Countries
  • For 7 days
  • Water Temperature
  • Satellite Maps
  • Weather Map
  • News
  • Weather Widgets
  • user-avatar
    Login

    Hourly Weather Jaguariaiva

    Today, 20 November, Tuesday

    Time Temperature Precipitation Wind Pressure Humidity
    00:00 +14°C° 0 mm 2 mps 689 mmHg 91%
    01:00 +14°C° 0 mm 2 mps 689 mmHg 92%
    02:00 +13°C° 0 mm 2 mps 689 mmHg 92%
    03:00 +13°C° 0 mm 2 mps 688 mmHg 93%
    04:00 +13°C° 0 mm 2 mps 689 mmHg 92%
    05:00 +13°C° 0 mm 2 mps 689 mmHg 92%
    06:00 +13°C° 0 mm 2 mps 689 mmHg 92%
    07:00 +14°C° 0 mm 3 mps 690 mmHg 85%
    08:00 +17°C° 0 mm 3 mps 690 mmHg 78%
    09:00 +19°C° 0 mm 3 mps 691 mmHg 70%
    10:00 +21°C° 0 mm 3 mps 691 mmHg 65%
    11:00 +24°C° 0 mm 3 mps 691 mmHg 60%
    12:00 +26°C° 0 mm 3 mps 692 mmHg 55%
    13:00 +26°C° 0 mm 3 mps 691 mmHg 55%
    14:00 +26°C° 0 mm 3 mps 691 mmHg 55%
    15:00 +26°C° 0 mm 4 mps 690 mmHg 55%
    16:00 +23°C° 0 mm 4 mps 690 mmHg 61%
    17:00 +22°C° 0 mm 4 mps 689 mmHg 67%
    18:00 +20°C° 0 mm 3 mps 689 mmHg 73%
    19:00 +18°C° 0 mm 3 mps 689 mmHg 78%
    20:00 +16°C° 0 mm 3 mps 690 mmHg 83%
    21:00 +14°C° 0 mm 3 mps 690 mmHg 87%
    22:00 +13°C° 0 mm 3 mps 690 mmHg 88%
    23:00 +13°C° 0 mm 3 mps 690 mmHg 89%

    Tomorrow, 21 November, Wednesday

    Time Temperature Precipitation Wind Pressure Humidity
    00:00 +14°C° 0 mm 2 mps 690 mmHg 91%
    01:00 +14°C° 0 mm 2 mps 690 mmHg 91%
    02:00 +14°C° 0 mm 2 mps 690 mmHg 91%
    03:00 +14°C° 0 mm 2 mps 689 mmHg 91%
    04:00 +14°C° 0 mm 2 mps 690 mmHg 91%
    05:00 +14°C° 0 mm 2 mps 690 mmHg 91%
    06:00 +14°C° 0 mm 2 mps 690 mmHg 91%
    07:00 +16°C° 0 mm 3 mps 691 mmHg 85%
    08:00 +19°C° 0 mm 3 mps 691 mmHg 79%
    09:00 +21°C° 0 mm 3 mps 692 mmHg 73%
    10:00 +22°C° 0 mm 3 mps 692 mmHg 71%
    11:00 +24°C° 0 mm 3 mps 692 mmHg 68%
    12:00 +25°C° 0 mm 3 mps 692 mmHg 65%
    13:00 +25°C° 0 mm 3 mps 691 mmHg 66%
    14:00 +25°C° 0 mm 3 mps 690 mmHg 66%
    15:00 +25°C° 0 mm 3 mps 690 mmHg 66%
    16:00 +24°C° 0 mm 3 mps 689 mmHg 70%
    17:00 +22°C° 0 mm 3 mps 689 mmHg 73%
    18:00 +21°C° 0 mm 3 mps 689 mmHg 77%
    19:00 +20°C° 0 mm 3 mps 689 mmHg 81%
    20:00 +18°C° 0 mm 3 mps 689 mmHg 85%
    21:00 +17°C° 0 mm 3 mps 690 mmHg 90%
    22:00 +17°C° 0 mm 3 mps 690 mmHg 90%
    23:00 +17°C° 0 mm 2 mps 690 mmHg 91%

    Day after tomorrow, 22 November, Thursday

    Time Temperature Precipitation Wind Pressure Humidity
    00:00 +17°C° 0 mm 2 mps 690 mmHg 92%
    01:00 +17°C° 0 mm 2 mps 689 mmHg 92%
    02:00 +17°C° 0 mm 2 mps 689 mmHg 93%
    03:00 +17°C° 0 mm 2 mps 688 mmHg 93%
    04:00 +17°C° 0 mm 2 mps 689 mmHg 94%
    05:00 +17°C° 0 mm 2 mps 689 mmHg 94%
    06:00 +17°C° 0 mm 2 mps 689 mmHg 94%
    07:00 +19°C° 0 mm 2 mps 689 mmHg 88%
    08:00 +20°C° 0 mm 2 mps 690 mmHg 81%
    09:00 +23°C° 0 mm 2 mps 690 mmHg 75%
    10:00 +24°C° 0 mm 2 mps 690 mmHg 70%
    11:00 +25°C° 0 mm 2 mps 690 mmHg 65%
    12:00 +27°C° 0 mm 2 mps 690 mmHg 60%
    13:00 +27°C° 0.1 mm 2 mps 689 mmHg 59%
    14:00 +27°C° 0.1 mm 2 mps 689 mmHg 59%
    15:00 +28°C° 0.1 mm 2 mps 688 mmHg 58%
    16:00 +27°C° 0 mm 1 mps 688 mmHg 62%
    17:00 +26°C° 0 mm 1 mps 688 mmHg 66%
    18:00 +26°C° 0 mm 1 mps 687 mmHg 70%
    19:00 +24°C° 0 mm 2 mps 688 mmHg 77%
    20:00 +21°C° 0 mm 2 mps 688 mmHg 83%
    21:00 +20°C° 0 mm 2 mps 688 mmHg 90%
    22:00 +19°C° 0 mm 2 mps 688 mmHg 92%
    23:00 +19°C° 0 mm 2 mps 688 mmHg 94%

    23 November, Friday

    Time Temperature Precipitation Wind Pressure Humidity
    00:00 +19°C° 0 mm 1 mps 688 mmHg 96%
    01:00 +19°C° 0 mm 1 mps 688 mmHg 96%
    02:00 +19°C° 0 mm 1 mps 687 mmHg 95%
    03:00 +19°C° 0 mm 1 mps 687 mmHg 95%
    04:00 +19°C° 0 mm 1 mps 687 mmHg 95%
    05:00 +19°C° 0 mm 1 mps 687 mmHg 94%
    06:00 +19°C° 0 mm 1 mps 687 mmHg 94%
    07:00 +21°C° 0 mm 1 mps 688 mmHg 85%
    08:00 +23°C° 0 mm 2 mps 689 mmHg 76%
    09:00 +26°C° 0 mm 2 mps 689 mmHg 66%
    10:00 +26°C° 0.6 mm 2 mps 689 mmHg 66%
    11:00 +27°C° 0.6 mm 2 mps 688 mmHg 66%
    12:00 +28°C° 0.6 mm 2 mps 688 mmHg 66%
    13:00 +28°C° 0.9 mm 2 mps 687 mmHg 67%
    14:00 +28°C° 0.9 mm 2 mps 687 mmHg 68%
    15:00 +28°C° 0.9 mm 1 mps 686 mmHg 69%
    16:00 +27°C° 0.8 mm 1 mps 686 mmHg 73%
    17:00 +26°C° 0.8 mm 1 mps 686 mmHg 77%
    18:00 +25°C° 0.8 mm 1 mps 686 mmHg 81%
    19:00 +24°C° 0.4 mm 1 mps 686 mmHg 85%
    20:00 +23°C° 0.4 mm 1 mps 686 mmHg 89%
    21:00 +21°C° 0.4 mm 1 mps 686 mmHg 92%
    22:00 +21°C° 0.1 mm 1 mps 686 mmHg 93%
    23:00 +21°C° 0.1 mm 1 mps 686 mmHg 93%

    24 November, Saturday

    Time Temperature Precipitation Wind Pressure Humidity
    00:00 +20°C° 0.1 mm 1 mps 686 mmHg 94%
    01:00 +20°C° 0.1 mm 1 mps 686 mmHg 94%
    02:00 +20°C° 0.1 mm 1 mps 686 mmHg 95%
    03:00 +20°C° 0.1 mm 1 mps 685 mmHg 95%
    04:00 +20°C° 0.6 mm 1 mps 686 mmHg 95%
    05:00 +20°C° 0.6 mm 1 mps 686 mmHg 95%
    06:00 +20°C° 0.6 mm 1 mps 686 mmHg 96%
    07:00 +20°C° 0.5 mm 1 mps 687 mmHg 94%
    08:00 +21°C° 0.5 mm 1 mps 687 mmHg 93%
    09:00 +20°C° 0.5 mm 2 mps 687 mmHg 91%
    10:00 +22°C° 1.1 mm 1 mps 687 mmHg 91%
    11:00 +22°C° 1.1 mm 1 mps 687 mmHg 91%
    12:00 +22°C° 1.1 mm 1 mps 687 mmHg 90%
    13:00 +22°C° 1.1 mm 1 mps 686 mmHg 91%
    14:00 +22°C° 1.1 mm 1 mps 686 mmHg 91%
    15:00 +22°C° 1.1 mm 1 mps 686 mmHg 91%
    16:00 +21°C° 1 mm 1 mps 686 mmHg 93%
    17:00 +20°C° 1 mm 2 mps 686 mmHg 95%
    18:00 +19°C° 1 mm 2 mps 686 mmHg 96%
    19:00 +19°C° 1.5 mm 2 mps 686 mmHg 96%
    20:00 +19°C° 1.5 mm 2 mps 686 mmHg 96%
    21:00 +19°C° 1.5 mm 2 mps 686 mmHg 96%
    22:00 +19°C° 1.6 mm 3 mps 686 mmHg 96%
    23:00 +19°C° 1.6 mm 3 mps 686 mmHg 97%

    25 November, Sunday

    Time Temperature Precipitation Wind Pressure Humidity
    00:00 +18°C° 1.6 mm 3 mps 686 mmHg 97%
    01:00 +18°C° 2.5 mm 3 mps 685 mmHg 97%
    02:00 +18°C° 2.5 mm 3 mps 684 mmHg 97%
    03:00 +19°C° 2.5 mm 3 mps 684 mmHg 97%
    04:00 +19°C° 5.5 mm 3 mps 684 mmHg 98%
    05:00 +19°C° 5.5 mm 3 mps 684 mmHg 98%
    06:00 +19°C° 5.5 mm 3 mps 684 mmHg 98%
    07:00 +19°C° 6.6 mm 3 mps 684 mmHg 98%
    08:00 +19°C° 6.6 mm 3 mps 684 mmHg 98%
    09:00 +19°C° 6.6 mm 3 mps 685 mmHg 98%
    10:00 +19°C° 6.7 mm 3 mps 684 mmHg 98%
    11:00 +19°C° 6.7 mm 3 mps 684 mmHg 98%
    12:00 +19°C° 6.7 mm 3 mps 684 mmHg 98%
    13:00 +19°C° 2.8 mm 3 mps 684 mmHg 97%
    14:00 +19°C° 2.8 mm 3 mps 683 mmHg 97%
    15:00 +19°C° 2.8 mm 3 mps 683 mmHg 97%
    16:00 +19°C° 0.6 mm 3 mps 683 mmHg 96%
    17:00 +19°C° 0.6 mm 3 mps 683 mmHg 96%
    18:00 +19°C° 0.6 mm 3 mps 683 mmHg 95%
    19:00 +19°C° 0.1 mm 3 mps 683 mmHg 95%
    20:00 +19°C° 0.1 mm 3 mps 684 mmHg 95%
    21:00 +19°C° 0.1 mm 3 mps 684 mmHg 95%
    22:00 +18°C° 0 mm 2 mps 684 mmHg 95%
    23:00 +18°C° 0 mm 2 mps 684 mmHg 96%
    Show more